Flag for Canada Weather past 2 weeks in Regina, Saskatchewan, Canada

Now
55 °F

Passing clouds.


Feels Like: 55 °F
Forecast: 56 / 80 °F
Wind: 5 mph from East

Location: Regina Weather Station

Current Time: Jul 30, 2014 at 5:39:18 AM

Latest Report: Jul 30, 2014 at 5:00 AM


Visibility: 15 mi

Pressure: 30.20 "Hg

Humidity: 94%

Dew point: 54 °F

Location of ReginaLocation

Historic Weather in Regina — Graph

°F

Regina temperature yesterday

Maximum temperature yesterday: 81 °F (at 5:00 PM)
Minimum temperature yesterday: 55 °F (at 5:00 AM)
Average temperature yesterday: 69 °F

Past Weeks' High & Low Weather Summary

 TemperatureHumidityPressure
High84 °F (Jul 19, 4:00 PM)100% (Jul 19, 3:00 AM)30.34 "Hg (Jul 19, 3:00 AM)
Low50 °F (Jul 15, 4:00 AM)36% (Jul 15, 3:00 PM)29.52 "Hg (Jul 18, 4:00 AM)
Average66 °F73%29.96 "Hg
* Reported Jul 15 4:00 AM — Jul 30 4:00 AM, Regina, Weather by CustomWeather, © 2014

Note: Actual official high and low records may vary slightly from our data, if they occured in-between our weather recording intervals... More about our weather records

Advertising

Regina weather history for previous 24 hours

 ConditionsComfort  
Time TempWeatherWind HumidityBarometerVisibility
4:00 AM
Jul 30
57 °FClear.2 mph94%30.19 "Hg15 mi
3:00 AM57 °FClear.6 mph94%30.19 "Hg15 mi
2:00 AM59 °FClear.5 mph88%30.19 "Hg15 mi
1:00 AM59 °FClear.6 mph88%30.19 "Hg15 mi
12:00 AM63 °FClear.6 mph88%30.19 "Hg15 mi
11:00 PM
Jul 29
64 °FClear.5 mph83%30.19 "Hg15 mi
10:00 PM68 °FClear.5 mph78%30.19 "Hg15 mi
9:00 PM72 °FClear.5 mph65%30.17 "Hg15 mi
8:00 PM73 °FSunny.6 mph61%30.17 "Hg15 mi
7:00 PM77 °FSunny.5 mph51%30.17 "Hg15 mi
6:00 PM79 °FPassing clouds.7 mph45%30.19 "Hg15 mi
5:00 PM81 °FPassing clouds.10 mph39%30.19 "Hg15 mi
4:00 PM79 °FScattered clouds.6 mph48%30.20 "Hg15 mi
3:00 PM79 °FScattered clouds.8 mph48%30.21 "Hg15 mi
2:00 PM79 °FScattered clouds.10 mph51%30.22 "Hg15 mi
1:00 PM77 °FScattered clouds.8 mph54%30.22 "Hg15 mi
12:00 PM77 °FScattered clouds.9 mph57%30.23 "Hg15 mi
11:00 AM75 °FScattered clouds.7 mph61%30.24 "Hg15 mi
10:00 AM73 °FPassing clouds.7 mph65%30.24 "Hg15 mi
9:00 AM72 °FSunny.7 mph69%30.23 "Hg15 mi
8:00 AM66 °FSunny.6 mph83%30.23 "Hg15 mi
7:00 AM59 °FSunny.No wind94%30.24 "Hg12 mi
6:00 AM57 °FFog.3 mph94%30.24 "Hg12 mi
5:00 AM55 °FClear.3 mph100%30.24 "Hg15 mi
Weather by CustomWeather, © 2014

See weather overviewHow to use our weather pages